Creek Data

    Home     View Charts     View Raw Data     Messages

ID Distance Battery Voltage Battery Current Internal Temp Internal Humidity External Temp Solar Input rssi snr Time Stamp Record
35787 15.1 4.11 49 49 38 52 4.5 -81 8 03/23/2025 08:15 AM 17558
35786 15.3 4.11 42 48 38 52 4.5 -82 7 03/23/2025 08:00 AM 17557
35785 15.3 4.05 26 47 39 49 4.5 -81 8 03/23/2025 07:45 AM 17556
35784 15.2 3.99 6 45 39 48 4.5 -82 8 03/23/2025 07:30 AM 17555
35783 15.2 3.96 -10 45 39 46 4.5 -83 8 03/23/2025 07:15 AM 17554
35782 15.2 4.02 -5 45 39 47 1.2 -82 8 03/23/2025 07:00 AM 17553
35781 15.2 3.97 -5 45 40 47 0.1 -82 7 03/23/2025 06:45 AM 17552
35780 15.2 4.02 -5 45 40 46 0 -81 8 03/23/2025 06:30 AM 17551
35779 15.2 3.97 -5 45 40 46 0.1 -81 7 03/23/2025 06:15 AM 17550
35778 15.2 3.97 -5 45 40 46 0 -81 8 03/23/2025 06:00 AM 17549
35777 15.2 4.03 -5 46 40 47 0 -80 8 03/23/2025 05:45 AM 17548
35776 15.3 3.97 -5 46 40 46 0 -81 8 03/23/2025 05:30 AM 17547
35775 15.2 3.98 -5 46 39 47 0 -81 8 03/23/2025 05:15 AM 17546
35774 15.2 4.03 -5 46 39 48 0 -81 8 03/23/2025 05:00 AM 17545
35773 15.2 3.98 -5 46 39 47 0.1 -80 8 03/23/2025 04:45 AM 17544
35772 15.2 3.98 -5 46 40 47 0 -81 9 03/23/2025 04:30 AM 17543
35771 15.2 4.03 -5 45 40 47 0.1 -81 8 03/23/2025 04:15 AM 17542
35770 15.2 3.98 -5 45 40 47 0 -81 7 03/23/2025 04:00 AM 17541
35769 15.2 3.98 -5 46 40 47 0 -82 8 03/23/2025 03:45 AM 17540
35768 15.2 4.03 -5 46 40 48 0 -81 8 03/23/2025 03:30 AM 17539
35767 15.2 3.98 -5 46 40 47 0.1 -81 8 03/23/2025 03:15 AM 17538
35766 15.1 3.98 -5 46 41 47 0 -81 8 03/23/2025 03:00 AM 17537
35765 15.2 3.98 -5 47 40 48 0 -82 7 03/23/2025 02:45 AM 17536
35764 15.1 4.03 -5 47 40 48 0 -81 7 03/23/2025 02:30 AM 17535
35763 15.1 3.98 -5 47 40 48 0 -81 7 03/23/2025 02:15 AM 17534